N8WJW Weather Reports


time (UTC)temp
F
wind
direction
speed
knots
gust
knots
rain 1hr
in
rain 24hr
in
rain mn
in
humidity
%
barometer
mb
20260504002151 56 228 2.6 7.8 0.00 0.00 0.00 46 1012.7
20260504001649 56 206 2.6 5.2 0.00 0.00 0.00 48 1012.8
20260504001145 56 185 2.6 10.4 0.00 0.00 0.00 46 1013.0
20260504000642 56 214 1.7 6.1 0.00 0.00 0.00 46 1012.9
20260504000139 56 202 3.5 8.7 0.00 0.00 0.00 45 1013.1
20260503235637 56 206 2.6 12.2 0.00 0.00 0.00 46 1013.0
20260503235134 56 199 3.5 7.8 0.00 0.00 0.00 47 1013.0
20260503234632 57 241 1.7 5.2 0.00 0.00 0.00 47 1013.1
20260503234130 57 218 3.5 5.2 0.00 0.00 0.00 46 1012.8
20260503233627 57 22 0.9 7.0 0.00 0.00 0.00 46 1013.1
20260503233122 57 161 3.5 7.8 0.00 0.00 0.00 47 1013.0
20260503232619 57 200 3.5 9.6 0.00 0.00 0.00 45 1013.0
20260503232117 57 216 3.5 6.1 0.00 0.00 0.00 47 1013.1
20260503231615 57 184 4.3 9.6 0.00 0.00 0.00 45 1013.0
20260503231111 57 184 6.1 7.0 0.00 0.00 0.00 45 1013.1
20260503230609 57 186 4.3 6.1 0.00 0.00 0.00 46 1013.1
20260503230105 57 220 2.6 5.2 0.00 0.00 0.00 46 1012.9
20260503225603 57 217 2.6 10.4 0.00 0.00 0.00 46 1013.1
20260503225056 57 311 1.7 2.6 0.00 0.00 0.00 47 1013.0
20260503224549 57 250 4.3 9.6 0.00 0.00 0.00 45 1013.1
20260503224047 57 245 3.5 7.0 0.00 0.00 0.00 44 1013.2
20260503223545 57 210 4.3 7.8 0.00 0.00 0.00 45 1013.0
20260503223040 57 207 3.5 7.0 0.00 0.00 0.00 44 1013.3
20260503222538 57 231 2.6 10.4 0.00 0.00 0.00 45 1013.2
20260503222036 57 244 7.8 7.8 0.00 0.00 0.00 44 1013.3
20260503221534 57 205 1.7 8.7 0.00 0.00 0.00 46 1013.2
20260503221031 57 193 3.5 6.1 0.00 0.00 0.00 44 1013.5
20260503220527 57 213 2.6 7.8 0.00 0.00 0.00 44 1013.3
20260503220024 57 224 4.3 9.6 0.00 0.00 0.00 44 1013.3
20260503215521 58 249 4.3 7.8 0.00 0.00 0.00 44 1013.4
20260503215018 58 180 5.2 10.4 0.00 0.00 0.00 44 1013.1
20260503214517 58 173 3.5 9.6 0.00 0.00 0.00 45 1013.2
20260503214013 58 195 6.1 10.4 0.00 0.00 0.00 46 1013.3
20260503213511 58 210 3.5 9.6 0.00 0.00 0.00 44 1013.4
20260503213008 58 282 0.9 4.3 0.00 0.00 0.00 43 1013.3
20260503212505 58 197 1.7 6.1 0.00 0.00 0.00 43 1013.1
20260503212002 58 212 2.6 4.3 0.00 0.00 0.00 46 1013.0
20260503211459 58 219 2.6 6.1 0.00 0.00 0.00 44 1013.0
20260503210955 58 181 7.0 11.3 0.00 0.00 0.00 44 1013.2
20260503210451 59 230 3.5 7.8 0.00 0.00 0.00 44 1013.2
20260503205946 57 209 5.2 10.4 0.00 0.00 0.00 43 1013.1
20260503205443 58 233 4.3 7.0 0.00 0.00 0.00 44 1013.3
20260503204939 58 244 8.7 11.3 0.00 0.00 0.00 42 1013.2
20260503204437 59 243 8.7 14.8 0.00 0.00 0.00 42 1013.4
20260503203933 58 225 2.6 6.1 0.00 0.00 0.00 44 1013.2
20260503203431 59 236 5.2 10.4 0.00 0.00 0.00 43 1013.4
20260503202928 60 164 2.6 7.0 0.00 0.00 0.00 43 1013.4
20260503202426 59 147 3.5 6.1 0.00 0.00 0.00 45 1013.4
20260503201925 59 179 4.3 13.0 0.00 0.00 0.00 43 1013.5
20260503201421 59 214 4.3 13.0 0.00 0.00 0.00 43 1013.5
20260503200919 59 235 2.6 9.6 0.00 0.00 0.00 43 1013.5
20260503200414 59 221 2.6 5.2 0.00 0.00 0.00 44 1014.0
20260503195912 58 238 3.5 12.2 0.00 0.00 0.00 44 1014.0
20260503195409 59 188 0.9 13.0 0.00 0.00 0.00 42 1013.9
20260503194905 59 229 9.6 13.9 0.00 0.00 0.00 41 1014.0
20260503194402 58 232 3.5 13.0 0.00 0.00 0.00 44 1014.2
20260503193858 58 235 3.5 8.7 0.00 0.00 0.00 41 1014.3
20260503193353 58 208 2.6 7.8 0.00 0.00 0.00 42 1014.4
20260503192849 58 251 6.1 13.9 0.00 0.00 0.00 43 1014.4
20260503192345 58 180 3.5 9.6 0.00 0.00 0.00 43 1014.4
20260503191842 58 353 3.5 11.3 0.00 0.00 0.00 42 1014.4
20260503191339 58 237 4.3 13.9 0.00 0.00 0.00 43 1014.6
20260503190835 59 245 7.0 17.4 0.00 0.00 0.00 42 1014.7
20260503190333 61 236 6.1 7.8 0.00 0.00 0.00 40 1014.8
20260503185830 61 214 3.5 11.3 0.00 0.00 0.00 41 1014.6
20260503185325 60 191 5.2 8.7 0.00 0.00 0.00 40 1014.7
20260503184820 59 148 1.7 8.7 0.00 0.00 0.00 46 1014.8
20260503184316 58 200 8.7 9.6 0.00 0.00 0.00 41 1014.7
20260503183812 60 251 4.3 13.0 0.00 0.00 0.00 41 1014.7
20260503183310 60 275 0.9 7.0 0.00 0.00 0.00 40 1014.7
20260503182807 58 251 1.7 8.7 0.00 0.00 0.00 42 1014.8
20260503182306 60 222 3.5 9.6 0.00 0.00 0.00 42 1014.8
20260503181803 60 204 5.2 15.6 0.00 0.00 0.00 41 1015.2
20260503181300 58 181 7.0 9.6 0.00 0.00 0.00 43 1014.9
20260503180756 60 257 5.2 11.3 0.00 0.00 0.00 43 1015.1
20260503180254 59 208 4.3 9.6 0.00 0.00 0.00 43 1015.2
20260503175750 58 194 6.1 13.9 0.00 0.00 0.00 42 1015.3
20260503175249 59 196 2.6 9.6 0.00 0.00 0.00 45 1015.3
20260503174744 59 207 1.7 8.7 0.00 0.00 0.00 48 1015.3
20260503174242 59 291 2.6 9.6 0.00 0.00 0.00 43 1015.4
20260503173742 59 213 3.5 11.3 0.00 0.00 0.00 45 1015.3
20260503173239 59 179 5.2 6.1 0.00 0.00 0.00 44 1015.4
20260503172736 58 183 4.3 10.4 0.00 0.00 0.00 46 1015.5
20260503172233 58 192 4.3 7.8 0.00 0.00 0.00 45 1015.7
20260503171729 57 178 2.6 7.8 0.00 0.00 0.00 45 1015.6
20260503171226 57 238 6.1 7.8 0.00 0.00 0.00 45 1015.6
20260503170723 57 212 3.5 10.4 0.00 0.00 0.00 46 1015.8
20260503170220 57 232 4.3 11.3 0.00 0.00 0.00 43 1015.6
20260503160136 56 278 3.5 5.2 0.00 0.00 0.00 45 1016.4
20260503150606 52 189 3.5 13.0 0.00 0.00 0.00 47 1016.7
20260503130956 44 237 0.0 9.6 0.00 0.00 0.00 63 1017.4
20260503130454 44 180 3.5 6.1 0.00 0.00 0.00 66 1017.2
20260503110338 31 97 0.0 1.7 0.00 0.00 0.00 98 1017.0
20260503090224 30 135 0.0 0.9 0.00 0.00 0.00 97 1016.8
20260503081156 31 29 0.0 1.7 0.00 0.00 0.00 96 1016.8
20260503080652 31 83 0.0 1.7 0.00 0.00 0.00 96 1017.0
20260503080149 31 60 0.0 1.7 0.00 0.00 0.00 96 1016.8
20260503072626 31 35 0.0 1.7 0.00 0.00 0.00 96 1016.7
20260503072123 31 65 0.0 1.7 0.00 0.00 0.00 95 1016.8
20260503071620 31 60 0.0 1.7 0.00 0.00 0.00 95 1016.8
20260503071116 31 81 0.0 1.7 0.00 0.00 0.00 95 1017.0
20260503070613 31 89 0.0 0.9 0.00 0.00 0.00 95 1016.8
20260503070112 31 67 0.0 1.7 0.00 0.00 0.00 95 1016.6
20260503055032 32 103 0.0 1.7 0.00 0.00 0.00 94 1017.3
20260503054528 32 93 0.0 1.7 0.00 0.00 0.00 94 1017.1
20260503054026 32 93 0.0 1.7 0.00 0.00 0.00 94 1017.2
20260503053523 32 100 0.9 1.7 0.00 0.00 0.00 94 1017.4
20260503053021 33 113 0.9 1.7 0.00 0.00 0.00 93 1017.2
20260503052517 33 104 0.9 1.7 0.00 0.00 0.00 93 1017.2
20260503052014 33 98 0.0 1.7 0.00 0.00 0.00 93 1017.4
20260503051509 33 31 0.0 1.7 0.00 0.00 0.00 93 1017.1
20260503051007 33 93 0.0 0.9 0.00 0.00 0.00 93 1017.3
20260503050503 33 89 0.0 1.7 0.00 0.00 0.00 92 1017.4
20260503050001 33 69 0.0 0.9 0.00 0.00 0.00 92 1017.4
20260503045458 34 93 0.0 1.7 0.00 0.00 0.00 92 1017.5
20260503044955 34 32 0.0 1.7 0.00 0.00 0.00 92 1017.5
20260503044451 34 101 0.0 1.7 0.00 0.00 0.00 92 1017.6
20260503043949 34 94 0.9 1.7 0.00 0.00 0.00 92 1017.6
20260503043445 34 41 0.0 1.7 0.00 0.00 0.00 91 1017.5
20260503042941 35 52 0.0 1.7 0.00 0.00 0.00 91 1017.5
20260503042438 35 89 0.9 1.7 0.00 0.00 0.00 91 1017.6
20260503041935 36 76 1.7 1.7 0.00 0.00 0.00 91 1017.3
20260503041431 36 85 1.7 1.7 0.00 0.00 0.00 91 1017.4
20260503040929 36 87 0.0 1.7 0.00 0.00 0.00 91 1017.5
20260503040426 37 81 0.9 1.7 0.00 0.00 0.00 90 1017.6
20260503035924 37 44 0.9 1.7 0.00 0.00 0.00 90 1017.6
20260503035420 38 89 0.0 1.7 0.00 0.00 0.00 90 1017.5
20260503034918 38 140 0.0 1.7 0.00 0.00 0.00 90 1017.6
20260503034415 38 97 0.0 1.7 0.00 0.00 0.00 90 1017.5
20260503033912 38 140 0.0 1.7 0.00 0.00 0.00 90 1017.5
20260503033410 38 89 0.0 1.7 0.00 0.00 0.00 90 1017.6
20260503032908 38 110 0.9 1.7 0.00 0.00 0.00 90 1017.5
20260503032406 38 77 0.0 1.7 0.00 0.00 0.00 89 1017.6
20260503031903 38 74 0.0 1.7 0.00 0.00 0.00 89 1017.6
20260503031401 38 47 0.0 1.7 0.00 0.00 0.00 89 1017.5
20260503030856 38 32 0.0 0.9 0.00 0.00 0.00 89 1017.8
20260503030353 38 39 0.9 1.7 0.00 0.00 0.00 88 1017.5
20260503025850 38 103 0.0 1.7 0.00 0.00 0.00 88 1017.5
20260503025347 38 89 0.9 1.7 0.00 0.00 0.00 88 1017.8
20260503024845 38 103 1.7 1.7 0.00 0.00 0.00 88 1017.9
20260503024341 38 89 0.0 1.7 0.00 0.00 0.00 88 1017.9
20260503023838 38 83 0.0 2.6 0.00 0.00 0.00 88 1017.8
20260503023335 38 73 0.0 1.7 0.00 0.00 0.00 88 1018.0
20260503022832 38 126 0.9 1.7 0.00 0.00 0.00 88 1017.9
20260503022326 38 83 1.7 1.7 0.00 0.00 0.00 87 1018.0
20260503021823 38 95 0.0 2.6 0.00 0.00 0.00 87 1017.8
20260503021319 38 43 1.7 1.7 0.00 0.00 0.00 86 1017.9
20260503020817 38 85 0.9 1.7 0.00 0.00 0.00 86 1017.9
20260503020315 38 104 0.9 1.7 0.00 0.00 0.00 85 1017.9
20260503015811 39 116 0.9 1.7 0.00 0.00 0.00 85 1018.1
20260503015308 39 91 0.9 1.7 0.00 0.00 0.00 84 1017.9
20260503014804 39 51 0.0 1.7 0.00 0.00 0.00 84 1017.8
20260503014302 39 116 0.0 1.7 0.00 0.00 0.00 83 1017.9
20260503013758 39 102 0.0 1.7 0.00 0.00 0.00 83 1017.9
20260503013256 39 95 0.9 1.7 0.00 0.00 0.00 82 1018.1
20260503012753 39 65 0.0 1.7 0.00 0.00 0.00 82 1017.8
20260503012250 39 41 0.9 1.7 0.00 0.00 0.00 81 1017.9
20260503011747 39 60 0.0 1.7 0.00 0.00 0.00 81 1017.8
20260503011244 39 83 0.0 0.9 0.00 0.00 0.00 80 1018.0
20260503010740 39 80 0.0 0.9 0.00 0.00 0.00 80 1017.8
20260503010237 39 71 0.0 0.9 0.00 0.00 0.00 80 1017.7
20260503005735 39 86 0.0 1.7 0.00 0.00 0.00 79 1017.9
20260503005232 39 56 0.0 1.7 0.00 0.00 0.00 79 1017.8
20260503004727 39 53 0.9 1.7 0.00 0.00 0.00 78 1017.8
20260503004226 39 69 0.0 0.9 0.00 0.00 0.00 77 1018.0
20260503003723 39 55 0.0 1.7 0.00 0.00 0.00 77 1017.8
20260503003220 40 89 0.0 0.9 0.00 0.00 0.00 77 1017.6
20260503002717 40 81 0.0 1.7 0.00 0.00 0.00 76 1017.7